Location: Newark
(55.7167°N, 12.5667°E)
Time: 03:17:31
(UTC+00:00)

ISS - Visible Passes

Search period start: 06 December 2019 00:00
Search period end: 16 December 2019 00:00
Orbit: 411 x 421 km, 51.6° (Epoch: 06 December)

Date Brightness Start Highest point End Pass type
(mag) Time Alt. Az. Time Alt. Az. Time Alt. Az.
06 Dec -2.5 15:49:59 10° WSW 15:53:08 38° S 15:56:19 10° ESE visible
06 Dec -1.5 17:26:51 10° WSW 17:29:21 20° SSW 17:30:12 18° S visible
07 Dec -1.7 16:38:14 10° W 16:41:02 25° SSW 16:43:51 10° SE visible
08 Dec -1.9 15:49:41 10° W 15:52:40 30° SSW 15:55:40 10° SE visible
08 Dec -0.7 17:27:29 10° WSW 17:28:40 11° SW 17:29:51 10° SSW visible
09 Dec -0.8 16:38:18 10° WSW 16:40:23 16° SSW 16:42:29 10° S visible
10 Dec -1.0 15:49:31 10° WSW 15:52:04 20° SSW 15:54:38 10° SSE visible
12 Dec -0.4 15:49:56 10° WSW 15:51:18 12° SW 15:52:40 10° SSW visible
